| time (UTC) | temp C | wind direction | speed KPH | gust KPH | rain 1hr cm | rain 24hr cm | rain mn cm | humidity % | barometer mb |
| 20260504235012 | 20 | 346 | 9.7 | 22.5 | 0.00 | 0.00 | 0.00 | 34 | 1005.2 |
| 20260504234520 | 20 | 5 | 6.4 | 17.7 | 0.00 | 0.00 | 0.00 | 34 | 1005.2 |
| 20260504234006 | 20 | 348 | 6.4 | 16.1 | 0.00 | 0.00 | 0.00 | 34 | 1005.2 |
| 20260504233506 | 20 | 346 | 6.4 | 16.1 | 0.00 | 0.00 | 0.00 | 33 | 1005.2 |
| 20260504233014 | 20 | 352 | 6.4 | 16.1 | 0.00 | 0.00 | 0.00 | 35 | 1005.0 |
| 20260504232506 | 21 | 318 | 4.8 | 17.7 | 0.00 | 0.00 | 0.00 | 33 | 1004.8 |
| 20260504232006 | 21 | 343 | 6.4 | 27.4 | 0.00 | 0.00 | 0.00 | 33 | 1004.7 |
| 20260504231518 | 21 | 325 | 9.7 | 27.4 | 0.00 | 0.00 | 0.00 | 32 | 1004.5 |
| 20260504231008 | 22 | 322 | 9.7 | 27.4 | 0.00 | 0.00 | 0.00 | 31 | 1004.5 |
| 20260504230508 | 22 | 303 | 11.3 | 27.4 | 0.00 | 0.00 | 0.00 | 31 | 1004.4 |
| 20260504230020 | 22 | 350 | 8.0 | 19.3 | 0.00 | 0.00 | 0.00 | 30 | 1004.3 |
| 20260504225514 | 22 | 321 | 4.8 | 22.5 | 0.00 | 0.00 | 0.00 | 34 | 1004.0 |
| 20260504225006 | 22 | 325 | 9.7 | 22.5 | 0.00 | 0.00 | 0.00 | 30 | 1003.9 |
| 20260504224504 | 23 | 338 | 8.0 | 20.9 | 0.00 | 0.00 | 0.00 | 30 | 1003.7 |
| 20260504224003 | 23 | 327 | 8.0 | 19.3 | 0.00 | 0.00 | 0.00 | 32 | 1003.6 |
| 20260504223503 | 23 | 360 | 6.4 | 27.4 | 0.00 | 0.00 | 0.00 | 31 | 1003.5 |
| 20260504223005 | 23 | 307 | 8.0 | 27.4 | 0.00 | 0.00 | 0.00 | 33 | 1003.6 |
| 20260504222504 | 23 | 352 | 11.3 | 20.9 | 0.00 | 0.00 | 0.00 | 33 | 1003.4 |
| 20260504222003 | 23 | 337 | 6.4 | 19.3 | 0.00 | 0.00 | 0.00 | 32 | 1003.3 |
| 20260504221503 | 24 | 337 | 4.8 | 16.1 | 0.00 | 0.00 | 0.00 | 31 | 1003.2 |
| 20260504221007 | 25 | 14 | 6.4 | 16.1 | 0.00 | 0.00 | 0.00 | 30 | 1003.1 |
| 20260504220503 | 25 | 323 | 6.4 | 17.7 | 0.00 | 0.00 | 0.00 | 30 | 1003.0 |
| 20260504220003 | 24 | 333 | 6.4 | 20.9 | 0.00 | 0.00 | 0.00 | 31 | 1003.0 |
| 20260504215503 | 25 | 328 | 8.0 | 20.9 | 0.00 | 0.00 | 0.00 | 30 | 1003.0 |
| 20260504215007 | 25 | 326 | 8.0 | 20.9 | 0.00 | 0.00 | 0.00 | 30 | 1002.8 |
| 20260504214504 | 25 | 333 | 6.4 | 16.1 | 0.00 | 0.00 | 0.00 | 32 | 1002.9 |
| 20260504214003 | 25 | 115 | 3.2 | 16.1 | 0.00 | 0.00 | 0.00 | 30 | 1002.8 |
| 20260504213503 | 25 | 294 | 6.4 | 22.5 | 0.00 | 0.00 | 0.00 | 32 | 1002.8 |
| 20260504213005 | 25 | 348 | 9.7 | 22.5 | 0.00 | 0.00 | 0.00 | 29 | 1002.8 |
| 20260504212504 | 26 | 5 | 6.4 | 16.1 | 0.00 | 0.00 | 0.00 | 31 | 1002.7 |
| 20260504212004 | 26 | 334 | 4.8 | 14.5 | 0.00 | 0.00 | 0.00 | 33 | 1002.7 |
| 20260504211513 | 26 | 349 | 3.2 | 16.1 | 0.00 | 0.00 | 0.00 | 32 | 1002.6 |
| 20260504211003 | 26 | 342 | 4.8 | 19.3 | 0.00 | 0.00 | 0.00 | 34 | 1002.6 |
| 20260504210505 | 25 | 355 | 9.7 | 20.9 | 0.00 | 0.00 | 0.00 | 33 | 1002.6 |
| 20260504210011 | 26 | 329 | 8.0 | 20.9 | 0.00 | 0.00 | 0.00 | 32 | 1002.6 |
| 20260504205506 | 26 | 351 | 6.4 | 16.1 | 0.00 | 0.00 | 0.00 | 33 | 1002.6 |
| 20260504205004 | 26 | 340 | 4.8 | 12.9 | 0.00 | 0.00 | 0.00 | 36 | 1002.5 |
| 20260504204507 | 26 | 36 | 6.4 | 20.9 | 0.00 | 0.00 | 0.00 | 32 | 1002.5 |
| 20260504204004 | 26 | 346 | 4.8 | 20.9 | 0.00 | 0.00 | 0.00 | 34 | 1002.5 |
| 20260504203506 | 26 | 324 | 6.4 | 19.3 | 0.00 | 0.00 | 0.00 | 37 | 1002.5 |
| 20260504203004 | 26 | 327 | 3.2 | 14.5 | 0.00 | 0.00 | 0.00 | 38 | 1002.4 |
| 20260504202508 | 26 | 360 | 3.2 | 19.3 | 0.00 | 0.00 | 0.00 | 37 | 1002.4 |
| 20260504202004 | 26 | 347 | 4.8 | 19.3 | 0.00 | 0.00 | 0.00 | 37 | 1002.4 |
| 20260504201505 | 26 | 301 | 9.7 | 17.7 | 0.00 | 0.00 | 0.00 | 37 | 1002.4 |
| 20260504201009 | 26 | 154 | 4.8 | 17.7 | 0.00 | 0.00 | 0.00 | 35 | 1002.4 |
| 20260504200506 | 26 | 360 | 4.8 | 17.7 | 0.00 | 0.00 | 0.00 | 36 | 1002.4 |
| 20260504200006 | 26 | 326 | 9.7 | 17.7 | 0.00 | 0.00 | 0.00 | 36 | 1002.4 |
| 20260504195507 | 26 | 360 | 4.8 | 14.5 | 0.00 | 0.00 | 0.00 | 36 | 1002.4 |
| 20260504195003 | 26 | 304 | 3.2 | 24.1 | 0.00 | 0.00 | 0.00 | 36 | 1002.3 |
| 20260504194521 | 26 | 349 | 11.3 | 24.1 | 0.00 | 0.00 | 0.00 | 36 | 1002.3 |
| 20260504194004 | 26 | 335 | 8.0 | 22.5 | 0.00 | 0.00 | 0.00 | 37 | 1002.2 |
| 20260504193507 | 26 | 306 | 8.0 | 22.5 | 0.00 | 0.00 | 0.00 | 37 | 1002.2 |
| 20260504193019 | 26 | 342 | 6.4 | 19.3 | 0.00 | 0.00 | 0.00 | 37 | 1002.2 |
| 20260504192504 | 27 | 313 | 6.4 | 17.7 | 0.00 | 0.00 | 0.00 | 39 | 1002.2 |
| 20260504192004 | 26 | 5 | 4.8 | 20.9 | 0.00 | 0.00 | 0.00 | 35 | 1002.1 |
| 20260504191520 | 26 | 302 | 11.3 | 20.9 | 0.00 | 0.00 | 0.00 | 33 | 1002.1 |
| 20260504191006 | 27 | 360 | 9.7 | 19.3 | 0.00 | 0.00 | 0.00 | 35 | 1002.1 |
| 20260504190504 | 27 | 318 | 8.0 | 19.3 | 0.00 | 0.00 | 0.00 | 34 | 1002.0 |
| 20260504190011 | 27 | 10 | 8.0 | 19.3 | 0.00 | 0.00 | 0.00 | 33 | 1001.9 |
| 20260504185504 | 27 | 322 | 9.7 | 19.3 | 0.00 | 0.00 | 0.00 | 32 | 1001.8 |
| 20260504185005 | 27 | 311 | 6.4 | 17.7 | 0.00 | 0.00 | 0.00 | 34 | 1001.8 |
| 20260504184509 | 27 | 313 | 9.7 | 17.7 | 0.00 | 0.00 | 0.00 | 30 | 1001.8 |
| 20260504184009 | 27 | 323 | 6.4 | 22.5 | 0.00 | 0.00 | 0.00 | 32 | 1001.7 |
| 20260504183508 | 27 | 327 | 4.8 | 22.5 | 0.00 | 0.00 | 0.00 | 32 | 1001.7 |
| 20260504183006 | 27 | 325 | 4.8 | 17.7 | 0.00 | 0.00 | 0.00 | 35 | 1001.6 |
| 20260504182505 | 27 | 319 | 8.0 | 17.7 | 0.00 | 0.00 | 0.00 | 33 | 1001.7 |
| 20260504182011 | 26 | 290 | 3.2 | 16.1 | 0.00 | 0.00 | 0.00 | 36 | 1001.7 |
| 20260504181506 | 26 | 321 | 4.8 | 17.7 | 0.00 | 0.00 | 0.00 | 32 | 1001.7 |
| 20260504181004 | 26 | 313 | 9.7 | 17.7 | 0.00 | 0.00 | 0.00 | 32 | 1001.7 |
| 20260504180505 | 27 | 319 | 1.6 | 14.5 | 0.00 | 0.00 | 0.00 | 33 | 1001.7 |
| 20260504180010 | 27 | 302 | 4.8 | 14.5 | 0.00 | 0.00 | 0.00 | 35 | 1001.7 |
| 20260504175504 | 27 | 333 | 6.4 | 14.5 | 0.00 | 0.00 | 0.00 | 34 | 1001.8 |
| 20260504175005 | 26 | 319 | 3.2 | 12.9 | 0.00 | 0.00 | 0.00 | 34 | 1001.8 |
| 20260504174512 | 26 | 253 | 4.8 | 17.7 | 0.00 | 0.00 | 0.00 | 31 | 1001.8 |
| 20260504174006 | 26 | 327 | 6.4 | 20.9 | 0.00 | 0.00 | 0.00 | 33 | 1001.8 |
| 20260504173505 | 26 | 319 | 8.0 | 20.9 | 0.00 | 0.00 | 0.00 | 33 | 1001.9 |
| 20260504173015 | 26 | 321 | 9.7 | 17.7 | 0.00 | 0.00 | 0.00 | 33 | 1002.0 |
| 20260504172507 | 26 | 282 | 6.4 | 25.7 | 0.00 | 0.00 | 0.00 | 34 | 1001.9 |
| 20260504172002 | 26 | 328 | 9.7 | 25.7 | 0.00 | 0.00 | 0.00 | 33 | 1001.9 |
| 20260504171512 | 26 | 314 | 9.7 | 19.3 | 0.00 | 0.00 | 0.00 | 35 | 1002.1 |
| 20260504171008 | 26 | 300 | 6.4 | 14.5 | 0.00 | 0.00 | 0.00 | 38 | 1002.1 |
| 20260504170510 | 25 | 240 | 1.6 | 14.5 | 0.00 | 0.00 | 0.00 | 37 | 1002.0 |
| 20260504151014 | 21 | 309 | 6.4 | 11.3 | 0.00 | 0.00 | 0.00 | 46 | 1002.2 |
| 20260504150507 | 21 | 324 | 3.2 | 11.3 | 0.00 | 0.00 | 0.00 | 44 | 1002.2 |
| 20260504141007 | 17 | 355 | 4.8 | 8.0 | 0.00 | 0.00 | 0.00 | 51 | 1002.6 |
| 20260504140511 | 17 | 302 | 3.2 | 9.7 | 0.00 | 0.00 | 0.00 | 55 | 1002.7 |
| 20260504130503 | 13 | 346 | 0.0 | 4.8 | 0.00 | 0.00 | 0.00 | 71 | 1002.5 |
| 20260504110506 | 8 | 277 | 0.0 | 0.0 | 0.00 | 0.00 | 0.00 | 82 | 1002.8 |
| 20260504100505 | 8 | 277 | 0.0 | 0.0 | 0.00 | 0.00 | 0.00 | 81 | 1002.7 |
| 20260504081513 | 10 | 277 | 0.0 | 0.0 | 0.00 | 0.00 | 0.00 | 75 | 1004.0 |
| 20260504081003 | 10 | 277 | 0.0 | 0.0 | 0.00 | 0.00 | 0.00 | 77 | 1004.1 |
| 20260504080511 | 10 | 277 | 0.0 | 0.0 | 0.00 | 0.00 | 0.00 | 78 | 1004.2 |
| 20260504050511 | 13 | 277 | 0.0 | 0.0 | 0.00 | 0.00 | 0.00 | 62 | 1006.8 |
| 20260504050016 | 13 | 277 | 0.0 | 0.0 | 0.00 | 0.00 | 0.00 | 61 | 1006.7 |
| 20260504045505 | 13 | 277 | 0.0 | 0.0 | 0.00 | 0.00 | 0.00 | 63 | 1006.8 |
| 20260504045007 | 13 | 277 | 0.0 | 0.0 | 0.00 | 0.00 | 0.00 | 63 | 1006.8 |
| 20260504044522 | 13 | 277 | 0.0 | 0.0 | 0.00 | 0.00 | 0.00 | 62 | 1006.9 |
| 20260504044007 | 13 | 277 | 0.0 | 0.0 | 0.00 | 0.00 | 0.00 | 63 | 1006.9 |
| 20260504043507 | 13 | 277 | 0.0 | 0.0 | 0.00 | 0.00 | 0.00 | 61 | 1007.0 |
| 20260504043025 | 13 | 277 | 0.0 | 0.0 | 0.00 | 0.00 | 0.00 | 60 | 1007.0 |
| 20260504042504 | 14 | 277 | 0.0 | 0.0 | 0.00 | 0.00 | 0.00 | 59 | 1007.0 |
| 20260504042007 | 14 | 277 | 0.0 | 0.0 | 0.00 | 0.00 | 0.00 | 57 | 1007.0 |
| 20260504041519 | 14 | 277 | 0.0 | 0.0 | 0.00 | 0.00 | 0.00 | 58 | 1007.1 |
| 20260504041007 | 15 | 277 | 0.0 | 0.0 | 0.00 | 0.00 | 0.00 | 57 | 1007.1 |
| 20260504040505 | 15 | 277 | 0.0 | 0.0 | 0.00 | 0.00 | 0.00 | 55 | 1007.2 |
| 20260504040015 | 15 | 277 | 0.0 | 0.0 | 0.00 | 0.00 | 0.00 | 56 | 1007.3 |
| 20260504035511 | 15 | 277 | 0.0 | 0.0 | 0.00 | 0.00 | 0.00 | 56 | 1007.4 |
| 20260504035010 | 14 | 277 | 0.0 | 0.0 | 0.00 | 0.00 | 0.00 | 58 | 1007.4 |
| 20260504034516 | 14 | 277 | 0.0 | 0.0 | 0.00 | 0.00 | 0.00 | 58 | 1007.4 |
| 20260504034010 | 14 | 277 | 0.0 | 0.0 | 0.00 | 0.00 | 0.00 | 59 | 1007.5 |
| 20260504033506 | 15 | 277 | 0.0 | 0.0 | 0.00 | 0.00 | 0.00 | 58 | 1007.6 |
| 20260504033022 | 15 | 277 | 0.0 | 0.0 | 0.00 | 0.00 | 0.00 | 58 | 1007.6 |
| 20260504032506 | 15 | 277 | 0.0 | 0.0 | 0.00 | 0.00 | 0.00 | 58 | 1007.5 |
| 20260504032008 | 15 | 277 | 0.0 | 0.0 | 0.00 | 0.00 | 0.00 | 56 | 1007.5 |
| 20260504031506 | 15 | 277 | 0.0 | 0.0 | 0.00 | 0.00 | 0.00 | 54 | 1007.6 |
| 20260504031002 | 16 | 277 | 0.0 | 0.0 | 0.00 | 0.00 | 0.00 | 53 | 1007.6 |
| 20260504030506 | 15 | 277 | 0.0 | 0.0 | 0.00 | 0.00 | 0.00 | 53 | 1007.6 |
| 20260504030007 | 16 | 277 | 0.0 | 0.0 | 0.00 | 0.00 | 0.00 | 54 | 1007.6 |
| 20260504025504 | 16 | 277 | 0.0 | 0.0 | 0.00 | 0.00 | 0.00 | 51 | 1007.7 |
| 20260504025005 | 16 | 277 | 0.0 | 0.0 | 0.00 | 0.00 | 0.00 | 52 | 1007.7 |
| 20260504024507 | 17 | 277 | 0.0 | 0.0 | 0.00 | 0.00 | 0.00 | 46 | 1007.7 |
| 20260504024006 | 17 | 277 | 0.0 | 0.0 | 0.00 | 0.00 | 0.00 | 45 | 1007.7 |
| 20260504023503 | 17 | 277 | 0.0 | 0.0 | 0.00 | 0.00 | 0.00 | 44 | 1007.8 |
| 20260504023003 | 17 | 277 | 0.0 | 0.0 | 0.00 | 0.00 | 0.00 | 44 | 1007.8 |
| 20260504022503 | 17 | 277 | 0.0 | 0.0 | 0.00 | 0.00 | 0.00 | 45 | 1007.8 |
| 20260504022004 | 17 | 277 | 0.0 | 0.0 | 0.00 | 0.00 | 0.00 | 44 | 1007.8 |
| 20260504021504 | 17 | 277 | 0.0 | 0.0 | 0.00 | 0.00 | 0.00 | 43 | 1007.9 |
| 20260504021009 | 18 | 277 | 0.0 | 0.0 | 0.00 | 0.00 | 0.00 | 42 | 1007.8 |
| 20260504020503 | 18 | 277 | 0.0 | 0.0 | 0.00 | 0.00 | 0.00 | 41 | 1007.9 |
| 20260504020007 | 18 | 277 | 0.0 | 0.0 | 0.00 | 0.00 | 0.00 | 41 | 1008.0 |
| 20260504015503 | 18 | 277 | 0.0 | 0.0 | 0.00 | 0.00 | 0.00 | 40 | 1008.0 |
| 20260504015003 | 18 | 277 | 0.0 | 0.0 | 0.00 | 0.00 | 0.00 | 40 | 1008.0 |
| 20260504014519 | 19 | 277 | 0.0 | 0.0 | 0.00 | 0.00 | 0.00 | 40 | 1008.1 |
| 20260504014003 | 19 | 277 | 0.0 | 0.0 | 0.00 | 0.00 | 0.00 | 40 | 1008.0 |
| 20260504013504 | 19 | 277 | 0.0 | 0.0 | 0.00 | 0.00 | 0.00 | 40 | 1008.0 |
| 20260504013015 | 19 | 277 | 0.0 | 0.0 | 0.00 | 0.00 | 0.00 | 39 | 1008.0 |
| 20260504012505 | 20 | 277 | 0.0 | 1.6 | 0.00 | 0.00 | 0.00 | 38 | 1008.0 |
| 20260504012003 | 20 | 277 | 0.0 | 1.6 | 0.00 | 0.00 | 0.00 | 38 | 1008.0 |
| 20260504011510 | 20 | 277 | 0.0 | 1.6 | 0.00 | 0.00 | 0.00 | 38 | 1008.0 |
| 20260504011004 | 20 | 268 | 0.0 | 3.2 | 0.00 | 0.00 | 0.00 | 38 | 1008.0 |
| 20260504010505 | 20 | 269 | 0.0 | 6.4 | 0.00 | 0.00 | 0.00 | 37 | 1008.1 |
| 20260504010006 | 21 | 271 | 0.0 | 6.4 | 0.00 | 0.00 | 0.00 | 37 | 1008.2 |
| 20260504005503 | 21 | 278 | 0.0 | 4.8 | 0.00 | 0.00 | 0.00 | 37 | 1008.2 |
| 20260504005003 | 21 | 281 | 0.0 | 4.8 | 0.00 | 0.00 | 0.00 | 36 | 1008.3 |
| 20260504004507 | 21 | 294 | 0.0 | 4.8 | 0.00 | 0.00 | 0.00 | 35 | 1008.3 |
| 20260504004005 | 21 | 303 | 0.0 | 4.8 | 0.00 | 0.00 | 0.00 | 36 | 1008.3 |
| 20260504003507 | 21 | 303 | 1.6 | 4.8 | 0.00 | 0.00 | 0.00 | 36 | 1008.3 |
| 20260504003004 | 21 | 274 | 0.0 | 4.8 | 0.00 | 0.00 | 0.00 | 34 | 1008.3 |
| 20260504002504 | 21 | 274 | 0.0 | 4.8 | 0.00 | 0.00 | 0.00 | 36 | 1008.3 |
| 20260504002006 | 21 | 327 | 0.0 | 6.4 | 0.00 | 0.00 | 0.00 | 36 | 1008.4 |
| 20260504001521 | 21 | 327 | 0.0 | 6.4 | 0.00 | 0.00 | 0.00 | 37 | 1008.5 |
| 20260504001003 | 22 | 310 | 0.0 | 6.4 | 0.00 | 0.00 | 0.00 | 36 | 1008.5 |
| 20260504000504 | 22 | 58 | 0.0 | 4.8 | 0.00 | 0.00 | 0.00 | 35 | 1008.5 |
| 20260504000037 | 22 | 265 | 0.0 | 4.8 | 0.00 | 0.00 | 0.00 | 33 | 1008.6 |
| 20260503235505 | 22 | 263 | 0.0 | 6.4 | 0.00 | 0.00 | 0.00 | 36 | 1008.6 |